STARLINK-32268, 60372

Orbit data source: Space-Track

STARLINK-32268, 60372 is a payload satellite owned by SpaceX/Seattle (US) in LEO that was launched on Sun, 04 Aug 2024 UTC via an FALCON 9 launch vehicle from the Air Force Western Test Range (AFWTR). Payload-class satellites include a variety of spacecraft equipped with specific instruments for various scientific and technological missions. These include communications satellites like Starlink; space stations such as the ISS; scientific satellites like the Hubble; Earth observation satellites from companies like Planet Labs, Umbra, and HawkEye 360; GPS; miniature CubeSats for education and research; and military/defense satellites.

Loading next visibility...
Identifier
60372, 2024-138T
Orbit
LEO
Country
Flag of USUS
Related business
Manufacturer
SpaceX/Seattle
Mission
Operational Commercial Communications
Bus & Motor
STARLINK V2M, Unknown motor
Mass
730 kg wet, ~700 kg dry
Launch date (UTC)
2024-08-04 (1 year ago)
Launch vehicle
FALCON 9
Launch site
Air Force Western Test Range (AFWTR)
Object type
Payload
Rocket body
Debris
Shape & HBR
Box + 2 Pan, 17.7 m
Radar Cross Section
33.884 m², Large (>1 m²)

Expand to show TLE details & history
Last TLE update: 15 hours ago

TLE from 15 hours ago
0 STARLINK-32268
1 60372U 24138T   25291.30476738  .00003612  00000-0  13403-3 0  9999
2 60372  53.1584 251.2645 0001316  82.7783 277.3367 15.30199805 68827
Epoch: 2025-10-18T07:18Z
TLE epoch observation values (Epoch: 2025-10-18T07:18:51.901Z)
Latitude
-0.00006°
Longitude
114.51051°
Altitude
476 km
Speed
7.629 km/s
True Right ascension
16h 45m 03s
True Declination
0° 00' 00"
Sunlit
Object was in daylight at epoch
Visualization orbit readout
Latitude
Unknown
Longitude
Unknown
Altitude
Unknown
Speed
Unknown
Apparent Right ascension
Unknown
Apparent Declination
Unknown
Sunlit
N/A
Visualization observer readout
Local Sidereal Time
17:03:32
Azimuth
Unknown
Elevation
Unknown
Doppler factor
Unknown
Orbital elements
Apogee altitude
476.374 km
Perigee altitude
474.57 km
Semi-major axis
6,853.609 km
Eccentricity
0.00013
Inclination
53.1584°
RAAN
251.2645°
Arg. of periapsis
82.7783°
True anomaly
277.32174°
Mean anomaly
277.3367°
Eccentric anomaly
277.32922°
Mean motion
3.82529 °/min
Orbital period
94.11 mins
BSTAR
0.00013403
Loading maneuver chart data...
Computing Atmospheric mass density...
Loading historical data...
Loading historical data...
Loading historical data...
Loading historical data...
Loading historical data...
Loading historical data...
Loading historical data...

Documentation

Showing up to 5 results
|